Tracking 18942 objects as of 18-Jan-2018
HD Live streaming from Space Station
objects crossing your sky now

FENGYUN 1C DEB

Track FENGYUN 1C DEB now!
10-day predictions


NORAD ID: 32222
Int'l Code: 1999-025CVU
Perigee: 755.1 km
Apogee: 900.7 km
Inclination: 99.1 °
Period: 101.3 minutes
Semi major axis: 7198 km
RCS: 0.0083 m2 (small)
Launch date: May 10, 1999
Source: People's Republic of China (PRC)
Launch site: Taiyaun Space Center, China (TSC)

Note: This is SATELLITE DEBRIS
aabbcc
Your satellite tracking list
Your tracking list is empty




NASA's NSSDC Master Catalog

Two Line Element Set (TLE):
1 32222U 99025CVU 18018.11984130  .00000941  00000-0  43058-3 0  9998
2 32222  99.1168 146.7830 0101101 295.6047  63.4708 14.21351854540048
Source of the keplerian elements: AFSPC